RH
4 3 3 3 3 2 2 2 1 1 1 1 1 1 1 1 2 2 2 2 2 2 2 2 2 2 2 2 2 2 2 2 2 2 2 2 2 2 2 2 2 2 2 2 2 2 2 2 2 2 2 2 2 2 2 2 2 2 2 2 2 2 2 2 2 2 2 2 2 2 2 2 2 2 2 2 2 2 2 2 2 2 2 2 2 2 2 2 2 2 2 2 2 2 2 2 2 2 2 2 2 2 2
4 3 3 3 3 3 2 2 2 2 1 1 1 1 1 2 2 2 2 2 2 2 2 2 2 2 2 2 2 2 2 2 2 2 2 2 2 2 2 2 2 2 2 2 2 2 2 2 2 2 2 2 2 2 2 2 2 2 2 2 2 2 2 2 2 2 2 2 2 2 2 2 2 2 2 2 2 2 2 2 2 2 2 2 2 2 2 2 2 2 2 2 2 2 2 2 2 2 2 2 2 2 2
4 4 3 3 3 3 3 2 2 2 2 2 2 2 2 2 2 2 2 2 2 2 2 2 2 2 2 2 2 2 2 2 2 2 2 2 2 2 3 3 3 3 3 3 3 3 3 3 3 3 3 3 3 3 3 3 3 3 3 3 3 3 3 3 3 3 3 3 3 3 3 3 3 3 3 3 3 3 3 2 2 2 2 2 2 2 2 2 2 2 2 2 2 2 2 2 2 2 2 2 2 2 2
4 4 3 3 3 3 3 3 2 2 2 2 2 2 2 2 2 2 2 2 2 2 2 2 2 2 2 2 2 2 2 2 2 2 2 2 2 3 3 3 3 3 3 3 3 3 3 3 3 3 3 3 3 3 3 3 3 3 3 3 3 3 3 3 3 3 3 3 3 3 3 3 3 3 3 3 3 3 3 3 3 3 3 3 3 3 3 3 3 3 3 3 2 2 2 2 2 2 2 3 3 3 3
4 4 4 3 3 3 3 3 3 2 2 2 2 2 2 2 2 2 2 2 2 2 2 2 2 3 3 3 3 3 3 2 2 2 2 2 3 3 3 3 3 3 3 3 4 4 4 4 4 4 4 4 4 4 4 4 4 4 3 3 3 3 3 3 3 3 3 3 3 3 3 3 3 3 3 3 3 3 3 3 3 3 3 3 3 3 3 3 3 3 3 3 3 3 3 3 3 3 3 3 3 3 3
4 4 4 4 3 3 3 3 3 3 2 2 2 2 2 2 2 2 2 2 2 2 2 2 3 3 3 3 3 3 3 3 3 3 3 3 3 3 3 3 3 3 3 4 4 4 4 4 4 4 4 4 4 4 4 4 4 4 4 4 4 4 4 4 4 4 4 4 4 4 4 4 4 4 4 4 4 4 4 4 4 4 4 4 4 4 3 3 3 3 3 3 3 3 3 3 3 3 3 3 3 3 3
5 5 4 4 4 3 3 3 3 3 3 3 3 2 2 2 2 2 2 2 2 2 2 3 3 3 3 3 3 3 3 3 3 3 3 3 3 3 3 3 3 3 3 4 4 4 4 4 5 5 5 5 5 5 5 5 5 5 5 5 5 5 5 5 5 5 4 4 4 4 4 4 4 4 4 4 4 4 4 4 4 4 4 4 4 4 4 4 4 4 4 4 4 4 4 4 4 4 4 4 4 4 4
5 5 5 5 4 4 3 3 3 3 2 2 2 2 2 2 2 2 2 2 2 2 2 2 3 3 3 3 3 3 3 3 3 3 3 3 3 3 3 3 3 3 3 3 4 4 4 4 4 5 5 5 5 5 5 6 6 6 6 6 6 6 6 5 5 5 5 5 5 5 5 5 5 5 5 5 5 5 5 5 5 5 5 5 5 5 5 5 5 5 5 5 5 5 5 5 5 5 5 5 5 5 5
6 6 6 5 5 5 4 3 3 3 2 2 2 2 2 2 2 2 2 2 2 2 2 2 3 3 3 3 3 3 3 3 3 3 3 3 3 3 3 3 3 3 3 3 3 3 4 4 4 4 5 5 5 5 5 6 6 6 6 6 6 6 6 6 6 6 6 6 6 6 6 6 6 6 6 6 6 6 6 6 6 6 6 6 6 6 6 6 6 6 6 6 6 6 6 6 6 6 6 6 6 6 6
7 7 6 6 6 5 5 4 4 3 3 3 2 2 2 2 2 2 2 3 2 2 2 3 3 3 3 3 3 3 3 3 3 3 4 4 4 4 4 4 4 4 3 3 3 3 3 4 4 4 4 5 5 5 5 5 5 6 6 6 6 6 6 6 7 7 7 7 7 7 7 7 7 7 7 7 7 7 7 7 7 7 7 7 7 7 7 7 7 7 7 7 7 7 7 7 7 7 7 7 7 7 7
7 7 7 7 7 7 6 6 5 4 4 3 3 2 2 2 2 2 2 3 3 3 3 3 3 3 3 3 3 3 3 3 3 3 4 4 4 4 4 4 4 4 4 4 4 4 4 4 4 4 4 4 4 4 5 5 5 5 5 6 6 6 6 6 6 7 7 7 7 7 7 7 7 7 7 7 7 7 7 7 7 7 7 7 7 7 7 7 7 7 7 7 7 7 7 7 7 7 7 7 7 7 7
7 7 8 8 8 8 7 7 6 6 5 5 4 3 3 2 2 2 2 2 3 3 3 3 3 3 3 3 3 3 3 3 3 3 3 4 4 4 4 4 4 4 4 4 4 4 4 4 4 4 4 4 4 4 4 4 5 5 5 5 5 6 6 6 6 6 6 7 7 7 7 7 7 7 7 7 7 8 8 8 8 8 7 7 7 8 8 8 8 8 8 8 8 8 8 8 8 8 8 8 8 8 8
7 8 8 8 8 8 8 8 8 7 7 6 6 5 4 4 3 3 2 2 2 2 3 3 3 3 3 3 3 3 3 3 3 3 3 3 4 4 4 4 4 4 4 4 4 4 4 4 4 4 4 4 4 4 4 4 4 5 5 5 5 5 5 6 6 6 6 6 7 7 7 7 7 7 7 7 8 8 8 8 8 8 8 8 8 8 8 8 8 8 8 8 8 8 8 8 8 8 8 8 8 8 8
7 8 8 8 9 9 9 9 9 9 8 8 8 7 6 6 5 4 4 3 3 3 2 3 3 3 3 3 3 3 3 3 3 3 3 3 3 3 4 4 4 4 4 4 4 4 4 4 4 4 4 4 4 4 4 4 4 5 5 5 5 5 5 5 6 6 6 6 6 7 7 7 7 7 7 7 7 7 8 8 8 8 8 8 8 8 8 8 8 8 8 8 8 8 8 8 8 8 8 8 8 8 8
7 8 8 9 9 9 9 9 9 9 9 9 9 9 8 8 7 6 6 5 4 4 3 3 3 3 3 3 3 3 3 3 3 3 3 3 3 3 3 4 4 4 4 4 4 4 4 5 5 5 5 5 5 5 5 5 5 5 5 5 5 5 5 5 6 6 6 6 6 7 7 7 7 7 7 7 7 7 7 7 8 8 8 8 8 8 8 8 8 8 8 8 8 8 8 8 8 8 8 8 8 8 8
7 8 8 8 9 9 9 9 10 10 10 10 10 10 10 10 9 9 8 8 7 6 5 5 4 4 3 3 3 3 3 3 3 3 3 3 3 3 3 4 4 4 4 4 4 4 4 4 5 5 5 5 5 5 5 5 5 5 5 5 5 5 5 5 6 6 6 6 6 7 7 7 7 7 7 7 7 7 8 8 7 7 7 7 7 7 7 7 7 7 7 7 7 7 7 8 8 8 8 8 8 8 8
7 7 8 8 8 9 9 9 10 10 10 10 10 10 10 10 10 10 10 10 9 9 8 8 7 6 5 5 4 4 4 3 3 3 3 4 4 4 4 4 4 4 4 4 4 4 4 4 4 4 5 5 5 5 5 5 5 5 5 5 5 5 5 6 6 6 6 6 6 6 7 7 7 7 7 7 7 8 8 8 8 8 8 8 8 7 7 7 7 7 7 7 7 7 7 7 7 7 8 8 8 8 8
7 7 7 8 8 8 9 9 9 10 10 10 10 11 11 11 11 11 11 11 11 11 10 10 10 9 9 8 7 7 6 5 5 5 4 4 4 4 4 4 4 4 4 4 4 4 4 4 4 4 4 4 5 5 5 5 5 5 5 5 5 5 6 6 6 6 6 6 6 6 6 7 7 7 7 7 7 7 8 8 8 8 8 8 8 8 8 8 8 8 7 7 7 7 7 7 7 7 7 7 8 8 8
7 7 7 7 8 8 8 9 9 9 10 10 10 11 11 11 11 12 12 12 12 12 12 12 12 11 11 11 10 10 9 9 8 7 7 6 6 5 5 5 5 5 5 5 5 5 4 4 4 4 4 4 4 4 5 5 5 5 5 5 5 5 5 6 6 6 6 6 6 6 6 6 7 7 7 7 7 7 7 7 8 8 8 8 8 8 8 8 8 8 8 8 8 8 8 8 8 8 8 8 8 8 7
7 7 7 7 7 8 8 8 9 9 9 10 10 10 11 11 11 12 12 12 12 13 13 13 13 13 13 13 12 12 12 12 11 11 10 10 9 9 8 8 7 7 6 6 6 6 5 5 5 5 5 5 5 5 5 5 5 5 5 5 5 5 5 5 5 5 6 6 6 6 6 6 6 6 7 7 7 7 7 7 7 7 8 8 8 8 8 8 8 8 8 8 8 8 8 8 8 8 8 8 8 8 8
6 7 7 7 7 7 8 8 8 9 9 9 10 10 10 11 11 11 12 12 12 13 13 13 13 13 13 13 13 13 13 13 13 13 13 12 12 12 11 11 10 10 10 9 9 8 8 7 7 7 6 6 6 6 6 6 5 5 5 5 5 5 5 5 5 5 5 5 6 6 6 6 6 6 6 6 7 7 7 7 7 7 7 7 8 8 8 8 8 8 8 8 8 8 8 8 8 8 8 8 8 8 8
6 6 6 7 7 7 7 8 8 8 9 9 9 10 10 10 11 11 11 12 12 12 12 13 13 13 13 14 14 14 14 14 14 14 14 14 14 14 14 13 13 13 13 12 12 11 11 11 10 10 9 9 8 8 8 8 7 7 7 7 6 6 6 6 6 6 6 6 6 6 6 6 6 6 6 6 6 6 6 6 7 7 7 7 7 7 7 8 8 8 8 8 8 8 8 8 9 9 9 9 9 9 9
6 6 7 7 7 7 7 7 7 8 8 8 9 9 9 10 10 10 11 11 11 12 12 12 12 13 13 13 13 13 14 14 14 14 14 14 14 15 15 15 15 14 14 14 14 14 13 13 13 13 12 12 12 11 11 11 10 10 10 10 9 9 9 8 8 8 7 7 7 7 7 7 7 6 6 6 6 6 6 6 6 6 6 7 7 7 7 7 7 7 7 8 8 8 8 8 8 8 9 9 9 9 9
7 7 7 7 7 6 6 7 7 7 7 8 8 8 8 9 9 10 10 10 11 11 11 11 12 12 12 13 13 13 13 14 14 14 14 14 15 15 15 15 15 15 15 15 15 15 15 15 15 14 14 14 14 14 14 14 13 13 13 13 13 12 12 12 11 11 11 10 10 10 9 9 9 9 8 8 8 8 8 7 7 7 7 7 7 7 7 7 7 7 7 7 7 7 7 7 8 8 8 8 8 8 8
7 7 7 7 7 6 6 6 7 7 7 7 7 7 8 8 8 9 9 10 10 10 11 11 11 12 12 13 13 13 14 14 14 14 14 15 15 15 15 15 15 15 16 16 16 16 16 16 16 16 16 16 16 15 15 15 15 15 15 15 15 15 15 15 15 14 14 14 14 13 13 12 12 12 11 11 11 10 10 10 10 9 9 9 9 8 8 8 8 8 8 8 8 8 8 8 8 8 8 8 8 8 8
7 7 7 7 6 6 6 6 6 6 6 6 6 7 7 8 8 8 9 9 10 10 10 11 11 12 12 13 13 14 14 14 14 15 15 15 15 15 15 15 15 15 16 16 16 16 16 16 17 17 17 17 17 17 17 17 17 17 17 17 17 17 18 18 18 17 17 17 17 17 17 16 16 16 15 15 14 14 14 13 13 12 12 12 11 11 11 11 10 10 10 10 10 10 9 9 9 9 9 8 8 8 8
7 7 6 6 6 6 6 6 6 6 6 6 6 6 7 7 7 8 8 8 9 10 10 10 11 12 12 13 13 14 14 15 15 15 15 16 16 16 16 16 16 16 16 16 16 16 17 17 17 17 17 18 18 18 18 18 18 19 19 19 19 20 20 20 20 20 20 21 21 21 20 20 20 20 19 19 19 18 18 18 17 17 17 16 16 15 15 15 14 14 14 13 13 13 12 12 12 11 11 11 10 10 10
7 6 6 6 6 6 6 6 5 5 5 5 5 6 6 6 7 7 7 8 8 8 9 10 10 11 11 12 12 13 14 14 15 15 15 16 16 16 16 16 16 16 17 17 17 17 17 17 17 18 18 18 18 19 19 19 20 20 20 21 21 22 22 22 23 23 23 24 24 24 24 24 24 24 24 24 24 24 23 23 23 22 22 22 21 21 21 21 20 20 19 19 18 18 18 17 17 16 15 15 14 14 13
6 6 6 6 6 6 6 5 5 5 5 5 5 5 5 6 6 6 6 6 7 7 7 8 8 9 9 10 10 11 12 12 13 14 14 15 15 16 16 16 17 17 17 17 17 18 18 18 18 18 18 19 19 19 20 20 21 21 22 22 22 23 23 24 24 24 25 25 25 26 26 26 27 27 27 27 27 27 27 27 27 27 27 27 27 27 26 26 26 26 26 25 25 25 24 24 23 23 22 22 21 20 20
6 6 6 6 6 6 6 6 6 5 5 5 5 5 5 5 5 5 5 5 5 5 6 6 6 6 7 7 8 8 9 10 10 11 11 12 13 14 14 15 15 16 16 16 17 17 17 18 18 18 19 19 19 20 20 21 21 21 22 22 23 23 24 24 24 25 25 25 26 26 26 26 26 27 27 27 27 27 28 28 28 28 28 28 28 28 28 28 28 28 28 28 28 28 28 28 28 28 27 27 27 27 26
6 7 7 6 6 6 6 6 6 6 6 6 6 6 5 5 5 5 5 5 5 5 5 5 5 5 5 6 6 6 7 7 8 8 9 10 10 11 12 12 13 13 14 14 15 15 15 16 17 17 18 18 18 19 19 20 20 21 21 22 22 22 23 23 24 24 24 24 24 24 24 24 24 24 24 24 24 24 24 24 24 24 24 24 24 24 24 24 25 25 25 25 25 25 25 25 25 26 26 26 26 26 26
7 7 7 7 7 7 7 7 7 6 6 6 6 6 6 6 6 5 5 5 5 5 5 5 5 5 5 5 5 6 6 6 6 7 7 7 8 9 9 10 10 11 11 12 12 13 13 14 14 15 15 16 16 17 17 18 18 19 19 20 20 20 21 21 21 21 22 22 22 22 21 21 21 20 20 20 19 19 18 18 18 18 18 17 17 17 17 17 17 17 17 17 17 17 18 18 18 18 18 19 19 19 20
7 7 7 7 7 7 7 7 7 7 7 7 7 7 7 6 6 6 6 6 5 5 5 5 5 5 5 5 5 5 6 6 6 6 6 7 7 8 8 8 9 9 10 10 10 11 11 12 12 13 13 14 14 15 15 16 16 17 17 18 18 18 18 18 19 19 19 19 18 18 18 18 17 17 16 15 15 14 14 13 13 12 12 12 11 11 11 11 11 11 11 11 11 11 11 11 11 11 11 11 12 12 12
7 7 7 7 7 8 8 8 8 8 8 8 8 7 7 7 7 7 7 6 6 6 6 6 5 5 5 5 5 6 6 6 6 6 7 7 7 7 8 8 9 9 9 10 10 10 11 11 12 12 12 13 13 14 14 15 15 15 16 16 16 16 16 16 16 16 16 16 15 15 15 14 14 13 12 12 11 11 10 10 9 9 9 9 9 8 8 8 8 8 8 8 8 8 8 8 8 8 8 8 8 8 8
8 8 8 8 8 8 8 8 8 8 8 8 8 8 8 8 8 8 7 7 7 7 6 6 6 6 6 6 6 6 6 6 6 6 7 7 7 8 8 8 9 9 9 10 10 10 11 11 12 12 12 13 13 13 13 14 14 14 14 14 14 14 14 14 13 13 13 12 12 12 11 11 10 10 10 9 9 8 8 8 7 7 7 7 7 7 7 7 7 7 7 6 6 6 6 6 6 6 6 6 7 7 7
9 9 8 8 8 8 8 8 9 9 9 9 9 9 9 9 9 8 8 8 8 7 7 7 7 6 6 6 6 6 6 6 6 7 7 7 8 8 8 9 9 9 10 10 10 10 11 11 11 12 12 12 12 12 12 12 12 12 12 12 11 11 11 11 10 10 10 10 9 9 8 8 8 7 7 7 7 6 6 6 6 6 6 6 6 6 6 6 6 6 5 5 5 5 5 5 5 5 5 5 5 5 5
10 10 9 9 9 9 9 9 9 9 9 9 9 9 9 9 9 9 9 9 8 8 8 8 7 7 7 7 6 6 6 7 7 7 7 7 8 8 8 9 9 9 10 10 10 10 10 10 11 11 11 11 11 11 11 11 10 10 10 10 9 9 9 8 8 8 7 7 7 7 6 6 6 6 6 5 5 5 5 5 5 5 5 5 5 5 5 5 5 5 5 5 5 5 5 4 4 4 4 4 4 4 4
12 11 11 10 10 10 9 9 9 9 9 9 9 9 9 10 10 10 9 9 9 9 9 8 8 8 8 7 7 7 7 7 7 7 7 8 8 8 8 8 9 9 9 9 9 9 10 10 10 10 10 9 9 9 9 9 9 9 8 8 8 7 7 7 6 6 6 6 6 5 5 5 5 5 5 5 5 5 5 5 5 5 5 5 5 5 5 5 4 4 4 4 4 4 4 4 4 4 4 4 4 4 4
14 13 12 12 11 10 10 10 10 9 9 9 9 10 10 10 10 10 10 10 10 10 9 9 9 9 8 8 8 8 8 8 8 8 8 8 8 8 8 8 8 9 9 9 9 9 9 9 9 9 9 8 8 8 8 8 7 7 7 7 6 6 6 6 6 5 5 5 5 5 5 5 5 5 5 5 5 5 5 5 5 5 5 5 4 4 4 4 4 4 4 4 4 4 4 4 4 4 4 3 3 3 3
17 16 14 13 12 12 11 10 10 10 10 10 10 10 10 10 10 10 10 10 10 10 10 10 10 9 9 9 9 9 9 8 8 8 8 8 8 8 8 8 8 8 8 8 8 9 9 8 8 8 8 8 7 7 7 7 6 6 6 6 6 5 5 5 5 5 5 5 5 5 5 5 5 5 5 5 5 5 5 5 5 5 4 4 4 4 4 4 4 4 4 4 4 4 4 4 3 3 3 3 3 3 3
19 18 17 16 15 14 13 12 11 11 10 10 10 10 10 10 10 10 10 10 10 10 10 10 10 10 10 10 10 10 9 9 9 9 9 9 8 8 8 8 8 8 8 8 8 8 8 8 8 7 7 7 7 6 6 6 6 5 5 5 5 5 5 5 5 5 5 5 5 5 5 5 5 5 5 5 5 5 5 5 5 4 4 4 4 4 4 4 4 4 4 4 4 4 3 3 3 3 3 3 3 3 3
21 21 20 19 18 17 15 14 13 12 11 11 11 10 10 10 10 10 10 10 10 11 11 11 11 11 10 10 10 10 10 10 10 10 9 9 9 9 9 8 8 8 8 8 8 8 8 7 7 7 6 6 6 6 5 5 5 5 5 5 5 5 5 5 5 5 5 5 5 5 5 5 5 5 5 5 5 5 5 5 5 4 4 4 4 4 4 4 4 4 4 4 4 4 4 4 4 4 4 4 3 3 3
23 23 23 22 21 20 18 17 16 15 14 13 12 12 11 11 11 11 11 11 11 11 11 11 11 11 11 11 11 11 11 11 10 10 10 10 10 9 9 9 9 9 8 8 8 8 7 7 7 6 6 6 5 5 5 5 4 4 4 4 4 4 4 5 5 5 5 5 5 5 5 5 5 5 5 5 5 5 5 5 5 5 4 4 4 4 4 4 4 4 4 4 4 4 4 4 4 4 4 4 4 4 4
25 25 25 24 24 23 22 21 20 18 17 16 14 14 13 12 12 12 11 11 11 11 11 11 11 11 11 11 11 11 11 11 11 11 11 11 10 10 10 10 10 9 9 9 8 8 7 7 7 6 6 6 5 5 5 5 4 4 4 4 4 4 4 4 5 5 5 5 5 5 6 6 6 6 5 5 5 5 5 5 5 5 5 5 5 5 4 4 4 4 4 4 4 4 4 4 4 4 4 4 4 4 4
26 26 26 26 26 26 26 25 24 22 21 19 18 17 15 15 14 13 13 13 12 12 12 12 12 12 12 12 12 12 12 12 12 12 12 12 11 11 11 11 11 10 10 10 9 9 8 8 7 7 6 6 6 5 5 5 5 4 4 4 4 4 4 4 5 5 5 5 5 5 6 6 6 6 6 6 6 6 5 5 5 5 5 5 5 5 5 5 5 5 4 4 4 4 4 4 4 4 4 4 4 4 4
27 28 28 28 28 28 28 28 27 26 25 24 22 21 19 18 17 16 15 15 14 14 13 13 13 13 13 13 13 13 13 13 13 13 13 13 12 12 12 12 12 12 11 11 10 10 10 9 8 8 8 7 7 6 6 6 5 5 5 5 5 5 5 5 5 5 5 5 5 5 5 6 6 6 6 6 6 6 6 6 5 5 5 5 5 5 5 5 5 4 4 4 4 4 4 4 4 4 4 4 4 4 4
28 29 29 29 30 30 30 30 30 30 29 29 28 26 25 24 22 21 19 18 17 17 16 15 15 14 14 14 14 14 14 14 14 14 13 13 13 13 13 13 13 13 12 12 12 11 11 10 10 10 9 9 8 8 8 7 7 7 6 6 6 6 5 5 5 5 5 5 5 5 5 5 5 5 5 5 5 5 5 5 5 5 5 5 5 5 5 5 5 5 5 5 5 5 5 5 5 5 5 5 5 5 5
29 30 30 30 31 31 31 31 31 32 32 32 32 31 31 29 28 27 26 24 23 22 21 19 18 17 17 17 16 16 16 15 15 15 15 14 14 14 14 14 14 14 14 13 13 13 12 12 12 11 11 11 10 10 10 9 9 9 9 8 8 8 8 7 7 7 7 6 6 6 6 6 6 6 6 5 5 5 5 5 5 5 5 5 5 6 6 6 6 6 6 7 7 7 7 7 8 8 8 8 8 8 8
31 31 31 31 31 31 32 32 32 32 32 32 33 33 33 33 33 32 31 30 29 28 27 26 24 23 22 21 20 20 19 18 18 17 17 16 16 16 16 15 15 15 15 14 14 14 14 14 13 13 13 13 12 12 12 11 11 11 11 11 10 10 10 10 10 10 9 9 9 9 8 8 8 8 8 8 8 8 8 8 8 8 8 8 9 9 9 9 10 10 10 10 11 11 11 11 12 12 12 13 13 13 13
32 32 32 32 32 32 32 32 32 32 32 32 33 33 33 33 34 34 34 34 34 33 33 32 31 30 28 27 26 25 24 23 22 21 20 19 19 18 18 17 17 16 16 16 16 16 15 15 15 14 14 14 14 14 13 13 13 13 13 12 12 12 12 12 12 12 12 12 12 11 11 11 11 11 11 11 11 11 11 12 12 12 12 13 13 13 13 13 14 14 14 14 15 15 16 16 17 17 18 18 19 19 19
33 33 33 33 33 33 33 33 33 33 33 33 33 33 33 33 34 34 34 35 35 35 35 36 35 35 34 34 33 32 30 29 28 26 25 25 24 23 22 21 20 20 19 19 18 18 17 17 16 16 16 16 15 15 15 15 14 14 14 14 14 14 14 14 14 14 14 14 14 14 14 14 14 14 15 15 15 15 15 16 16 16 16 16 17 17 17 17 17 17 17 18 18 18 19 19 20 21 22 22 23 24 25
34 34 34 34 34 35 35 35 35 34 34 34 34 34 34 34 34 34 35 35 35 36 36 37 37 37 37 37 37 36 35 35 34 33 32 31 30 29 28 26 25 24 24 23 22 21 21 20 19 18 17 17 17 17 16 16 16 16 15 15 15 15 15 15 15 15 15 16 16 16 17 17 17 17 18 18 18 18 19 19 19 19 19 19 19 19 19 19 19 19 19 20 20 20 21 21 22 23 24 25 26 26 27
36 36 36 37 37 38 39 39 39 38 37 36 36 35 35 35 35 36 36 36 36 37 37 38 38 38 39 39 39 39 39 39 38 38 37 36 35 35 33 32 31 30 29 27 27 26 26 25 23 22 21 20 20 19 19 18 18 18 18 18 17 17 17 17 18 18 18 18 18 19 19 20 20 20 20 21 21 21 21 21 22 22 22 22 22 22 22 22 22 22 22 22 22 23 23 24 24 25 26 26 27 28 29
39 39 39 40 42 43 45 46 46 45 43 41 40 38 38 37 37 38 38 38 38 39 39 39 40 40 40 41 41 41 41 41 41 41 41 40 40 39 38 37 36 35 35 33 32 32 31 30 29 28 27 26 25 24 23 22 22 22 21 21 21 21 21 21 21 21 22 22 22 23 23 23 23 23 24 24 24 24 24 24 24 25 25 25 25 25 25 25 26 26 26 26 27 27 28 28 29 29 30 31 32 33 34
42 42 43 44 47 49 52 53 53 52 50 48 46 44 43 42 41 41 41 41 42 42 42 42 42 42 42 43 43 43 43 43 44 44 44 43 43 42 42 41 41 40 39 38 38 37 36 36 35 35 34 33 32 31 30 29 28 28 27 27 26 26 26 26 26 26 27 27 27 27 27 27 27 27 27 27 27 27 27 27 28 28 28 28 29 29 29 30 30 31 32 32 33 34 35 35 36 36 37 38 39 40 40
45 46 47 50 52 55 58 59 59 58 56 54 53 51 50 49 48 47 47 47 46 46 46 46 46 46 45 45 45 45 45 46 46 46 46 46 46 46 45 45 44 44 43 43 43 42 42 41 41 41 40 40 39 38 38 37 36 35 35 34 34 33 33 32 32 32 32 31 31 31 30 30 30 30 30 30 30 31 31 31 32 32 32 33 33 34 34 35 35 36 37 38 39 40 41 42 43 43 44 45 45 46 46
48 50 52 55 57 60 62 62 62 61 60 60 59 58 57 56 55 54 54 53 52 52 51 51 50 50 49 49 48 48 49 49 49 49 49 49 49 49 49 48 48 47 47 47 47 46 46 45 45 45 45 45 45 44 44 44 43 43 42 41 40 39 38 38 37 37 36 35 35 34 34 34 33 34 34 34 35 35 35 36 36 36 37 37 38 39 40 40 41 42 43 44 45 46 46 47 47 47 47 48 48 48 48
52 55 57 59 61 63 64 64 64 63 63 62 62 62 61 61 60 60 59 59 58 57 56 56 55 54 54 53 52 52 52 52 52 52 52 52 52 52 52 52 51 51 51 51 50 50 50 50 49 49 49 49 50 49 48 48 47 47 46 45 44 43 42 41 41 40 40 39 38 38 37 37 38 38 38 39 39 39 40 40 41 41 42 43 44 45 46 46 47 48 48 48 49 49 48 48 48 47 47 46 46 46 46
56 58 60 62 63 64 65 65 65 64 64 64 64 64 64 64 64 63 63 62 62 61 61 60 59 59 58 57 56 56 56 56 55 55 55 56 56 56 56 55 55 55 55 55 55 54 54 53 53 53 52 52 53 52 51 50 50 49 48 48 47 45 44 44 43 43 42 42 41 41 41 42 42 43 43 43 43 44 44 45 46 47 48 49 50 51 51 51 51 51 51 50 49 48 47 47 46 45 44 44 43 43 43
60 62 63 65 65 65 66 65 65 65 65 65 65 65 66 66 66 65 65 65 64 64 64 63 63 62 62 61 60 60 59 59 59 59 59 59 59 59 59 60 60 60 60 60 59 59 58 57 56 56 56 55 55 55 55 53 52 51 51 50 49 48 47 46 45 45 45 44 44 44 45 45 46 46 47 47 48 48 49 49 50 51 52 53 53 54 54 53 53 52 51 49 48 46 45 44 43 42 42 42 41 41 41
63 65 66 67 67 67 66 66 66 67 67 67 67 67 67 68 68 67 67 67 66 66 66 66 65 65 65 64 64 63 63 63 63 62 62 63 63 63 63 63 64 64 64 64 63 63 62 61 60 59 58 57 57 57 57 56 55 54 53 52 51 50 49 49 48 48 48 48 48 48 48 49 49 49 50 50 50 51 51 52 52 53 53 54 54 54 53 53 52 51 49 48 46 45 43 43 42 41 41 41 40 40 40
Wind_Speed
22 22 22 22 21 21 21 21 21 21 21 20 20 20 20 19 19 19 19 19 18 18 18 18 18 18 18 18 19 19 19 19 19 20 20 20 20 20 21 21 21 21 21 21 22 22 22 22 22 22 21 21 21 21 21 21 21 21 21 21 21 21 21 22 22 22 22 22 22 22 23 23 23 23 24 24 24 24 25 25 25 25 26 26 26 26 26 26 26 26 26 26 26 26 26 26 26 26 26 25 25 25 25
22 22 21 21 21 21 21 21 21 21 21 21 21 20 20 20 20 20 19 19 19 19 19 19 19 18 18 18 18 19 19 19 19 19 20 20 20 20 20 20 21 21 21 21 21 21 21 21 21 21 21 21 21 21 21 21 21 21 21 21 21 21 21 21 21 22 22 22 22 22 22 23 23 23 23 24 24 24 24 25 25 25 25 25 26 26 26 26 26 26 26 26 26 26 26 26 26 25 25 25 25 25 25
21 21 21 21 21 21 21 21 21 21 21 21 21 21 21 21 20 20 20 20 20 19 19 19 19 19 19 19 19 19 19 19 19 19 19 19 20 20 20 20 20 20 21 21 21 21 21 21 21 21 21 21 22 22 22 22 22 22 22 22 22 22 22 22 22 22 22 22 22 22 22 23 23 23 23 24 24 24 24 24 25 25 25 25 25 26 26 26 26 26 26 26 26 26 26 26 26 25 25 25 25 25 25
21 21 21 21 20 20 20 20 20 21 21 21 21 21 21 21 21 21 21 21 20 20 20 20 20 19 19 19 19 19 19 19 19 19 19 19 19 20 20 20 20 20 20 21 21 21 21 21 21 21 22 22 22 22 22 22 22 22 22 22 22 22 22 22 22 22 22 22 22 22 23 23 23 23 23 24 24 24 24 25 25 25 25 25 25 26 26 26 26 26 26 26 26 26 26 26 26 26 26 25 25 25 25
21 21 20 20 20 20 20 20 20 20 20 21 21 21 21 22 22 22 21 21 21 21 21 20 20 20 20 20 20 20 20 19 19 19 20 20 20 20 20 20 20 20 20 20 21 21 21 21 21 21 21 22 22 22 22 22 22 23 23 23 23 23 23 23 23 23 23 23 23 23 23 23 23 24 24 24 24 24 25 25 25 25 25 25 25 26 26 26 26 26 26 26 26 26 26 26 26 26 26 26 26 26 26
20 20 20 20 20 20 20 20 20 20 20 20 21 21 21 22 22 22 22 22 22 22 21 21 21 21 21 21 21 20 20 20 20 20 20 20 20 20 20 20 20 20 20 21 21 21 21 21 21 21 21 22 22 22 22 22 22 23 23 23 23 23 23 23 23 23 23 23 23 23 23 24 24 24 24 24 24 25 25 25 25 25 26 26 26 26 26 26 26 26 26 26 26 26 26 26 26 26 26 26 26 26 26
20 20 20 20 19 19 19 19 19 19 20 20 21 21 21 22 22 22 22 22 22 22 22 22 22 22 22 22 22 21 21 21 21 21 21 21 21 21 21 21 21 21 21 21 21 21 21 21 22 22 22 22 22 22 22 22 22 23 23 23 23 24 24 24 24 24 24 24 24 24 24 24 24 24 25 25 25 25 25 26 26 26 26 26 26 26 27 27 27 27 27 27 27 27 27 27 27 27 27 27 27 27 27
20 20 20 19 19 19 19 19 19 19 20 20 20 21 21 22 22 22 23 23 23 23 23 23 23 23 23 23 22 22 22 22 22 22 22 22 22 22 21 22 21 21 21 22 22 22 22 22 22 22 22 23 23 23 23 23 23 23 23 23 24 24 24 24 24 24 24 24 25 25 25 25 25 25 25 25 26 26 26 26 26 27 27 27 27 27 27 27 28 28 28 28 28 28 28 28 28 28 28 28 28 28 28
20 20 20 19 19 19 19 19 19 19 20 20 20 21 21 21 22 22 23 23 23 23 24 24 24 24 24 24 23 23 23 23 23 23 23 23 23 23 23 22 22 22 22 22 22 23 23 23 23 23 23 23 24 24 24 24 24 24 24 24 24 24 24 25 25 25 25 25 25 25 25 26 26 26 26 26 26 27 27 27 27 27 27 28 28 28 28 28 28 29 29 29 29 29 29 29 29 29 29 29 29 29 29
20 20 20 19 19 19 19 19 19 19 20 20 20 20 21 21 21 22 22 23 23 24 24 24 24 24 24 24 24 24 24 24 24 24 24 24 24 24 24 24 24 24 24 24 23 24 24 24 24 24 24 24 25 25 25 25 25 25 25 25 25 25 25 25 25 25 26 26 26 26 26 27 27 27 27 27 27 27 28 28 28 28 28 28 29 29 29 29 29 29 30 30 30 30 30 30 30 30 30 30 30 30 30
20 20 20 19 19 19 19 19 19 19 20 20 20 20 20 21 21 21 22 22 23 23 24 24 25 25 25 25 25 25 25 25 25 25 25 25 25 25 25 25 25 25 25 25 25 25 25 25 25 25 25 25 26 26 26 26 26 26 26 26 26 26 26 26 26 26 27 27 27 27 27 27 27 28 28 28 28 28 29 29 29 29 29 29 30 30 30 30 30 30 30 30 31 31 31 31 31 31 31 31 31 31 31
20 20 20 20 19 19 19 19 19 19 20 20 20 20 20 20 20 21 21 22 22 23 23 24 24 25 25 25 26 26 26 26 26 26 26 26 26 26 26 26 26 26 26 26 26 26 26 26 26 26 26 26 27 27 27 27 27 27 28 28 28 28 28 28 28 28 28 28 28 28 28 28 28 29 29 29 29 29 29 30 30 30 30 30 30 30 31 31 31 31 31 31 31 32 32 32 32 32 32 32 32 32 32
20 20 20 20 20 19 20 20 20 20 20 20 20 20 19 19 20 20 20 21 22 22 23 23 24 24 25 25 26 26 26 26 26 26 26 27 27 27 27 27 27 27 27 27 27 27 27 27 27 27 27 27 28 28 28 28 28 28 29 29 29 29 29 29 29 29 29 29 29 29 29 29 30 30 30 30 30 30 30 30 31 31 31 31 31 31 32 32 32 32 32 32 32 32 33 33 33 33 33 33 33 33 33
21 20 20 20 20 20 20 20 20 20 20 20 20 20 19 19 19 19 20 20 21 21 22 23 23 24 24 25 25 26 26 26 27 27 27 27 27 27 27 27 28 28 28 28 28 28 28 28 28 28 28 28 29 29 29 29 29 29 30 30 30 30 30 30 30 30 30 30 30 31 31 31 31 31 31 31 31 31 31 31 32 32 32 32 32 32 32 33 33 33 33 33 33 33 33 33 34 34 34 34 34 34 34
21 20 20 20 20 20 20 20 20 20 20 20 20 20 20 19 19 19 19 20 20 20 21 21 22 23 23 24 25 25 26 26 27 27 27 27 28 28 28 28 28 28 28 29 29 29 29 29 29 29 29 30 30 30 30 30 30 30 31 31 31 31 31 31 31 31 31 31 31 32 32 32 32 32 32 32 32 32 32 33 33 33 33 33 33 33 33 34 34 34 34 34 34 34 34 34 35 35 35 35 35 35 35
20 20 20 20 20 20 20 20 20 20 20 21 20 20 20 20 20 20 20 20 20 20 20 21 21 21 22 23 23 24 25 25 26 26 27 27 27 28 28 28 29 29 29 29 29 30 30 30 30 30 30 30 31 31 31 31 31 31 32 32 32 32 32 32 32 32 32 32 32 33 33 33 33 33 33 33 33 34 34 34 34 34 34 34 34 34 35 35 35 35 35 35 35 35 35 35 36 36 36 36 36 36 36
20 20 20 20 20 20 21 21 21 21 21 21 21 21 21 20 20 20 20 20 20 20 20 20 21 21 21 21 22 23 23 24 24 25 26 26 27 27 28 28 28 29 29 29 30 30 30 30 31 31 31 31 31 32 32 32 32 32 33 33 33 33 33 33 33 33 33 33 34 34 34 34 34 34 34 34 35 35 35 35 35 35 35 35 36 36 36 36 36 36 36 36 36 36 37 37 37 37 37 37 37 37 37
20 20 20 20 21 21 21 21 21 21 21 21 21 21 21 21 21 21 21 21 21 21 21 21 21 21 21 21 21 22 22 22 23 23 24 25 25 26 26 27 28 28 29 29 30 30 30 31 31 31 31 32 32 32 32 32 33 33 33 33 34 34 34 34 34 34 34 34 35 35 35 35 35 35 36 36 36 36 36 36 36 36 36 37 37 37 37 37 37 37 37 37 37 38 38 38 38 38 38 38 38 38 38
20 20 20 20 21 21 21 21 21 21 21 21 21 21 21 21 21 21 21 22 22 22 22 22 22 22 22 22 21 21 22 22 22 22 23 23 24 24 25 26 26 27 27 28 29 29 30 30 31 31 31 32 32 32 33 33 33 33 34 34 34 34 35 35 35 35 35 35 36 36 36 36 36 36 37 37 37 37 37 37 37 37 38 38 38 38 38 38 38 38 38 38 38 39 39 39 39 39 39 39 39 39 39
20 20 20 20 21 21 21 21 21 21 21 21 21 22 22 22 22 22 22 22 22 22 22 23 23 23 23 22 22 22 22 22 22 22 22 22 23 23 24 24 25 25 26 27 27 28 28 29 30 30 31 31 32 32 32 33 33 33 34 34 34 35 35 35 35 36 36 36 36 36 37 37 37 37 38 38 38 38 38 38 39 39 39 39 39 39 39 39 39 39 39 39 40 40 40 40 40 40 40 40 40 40 40
20 20 20 20 21 21 21 21 21 21 21 22 22 22 22 22 22 22 22 23 23 23 23 23 23 23 23 24 24 23 23 23 23 23 23 23 23 23 23 24 24 25 25 26 26 27 27 28 28 29 29 30 31 31 31 32 32 33 33 34 34 34 35 35 35 36 36 36 37 37 37 37 38 38 38 38 39 39 39 39 39 40 40 40 40 40 40 40 40 40 41 41 41 41 41 41 41 41 41 41 41 42 42
19 20 20 20 20 21 21 21 21 21 22 22 22 22 22 22 23 23 23 23 23 24 24 24 24 24 24 25 25 25 25 25 24 24 24 24 24 24 24 24 24 25 25 25 26 26 27 27 27 28 28 29 29 30 30 31 31 32 32 33 33 34 34 34 35 35 36 36 36 37 37 37 38 38 38 39 39 39 39 40 40 40 40 41 41 41 41 41 41 42 42 42 42 42 42 42 42 42 42 43 43 43 43
20 20 20 20 21 21 21 21 21 22 22 22 22 22 22 23 23 23 23 24 24 24 24 25 25 25 25 25 26 26 26 26 26 26 26 26 25 25 25 25 25 26 26 26 26 26 27 27 27 28 28 28 28 29 29 29 30 30 31 31 32 32 33 33 34 34 35 35 36 36 36 37 37 38 38 38 39 39 39 40 40 40 41 41 41 41 42 42 42 42 42 43 43 43 43 43 43 43 44 44 44 44 44
20 20 20 21 21 21 21 21 21 22 22 22 22 22 23 23 23 23 24 24 24 25 25 25 25 26 26 26 26 27 27 27 27 27 27 27 27 27 27 27 27 27 27 27 27 27 27 28 28 28 28 28 28 29 29 29 29 29 30 30 31 31 32 32 33 33 34 34 34 35 35 36 36 37 37 38 38 38 39 39 40 40 40 41 41 41 41 42 42 42 43 43 43 43 44 44 44 44 44 45 45 45 45
21 21 21 21 21 21 21 21 22 22 22 22 22 23 23 23 23 24 24 24 24 25 25 26 26 26 26 27 27 27 27 28 28 28 28 28 28 28 28 28 28 28 28 28 28 28 28 28 28 29 29 29 29 29 29 29 29 29 30 30 30 31 31 32 32 32 33 33 34 34 34 35 35 36 36 37 37 38 38 38 39 39 40 40 40 41 41 41 42 42 42 42 43 43 43 44 44 44 45 45 45 45 46
22 22 22 22 22 22 22 22 22 22 22 23 23 23 23 23 24 24 24 25 25 25 26 26 26 27 27 27 28 28 28 28 29 29 29 29 29 29 29 30 30 30 30 30 30 30 30 30 30 30 30 30 30 30 30 30 30 30 30 30 31 31 31 32 32 32 33 33 33 34 34 34 35 35 36 36 36 37 37 38 38 38 39 39 40 40 40 40 41 41 41 42 42 42 43 43 43 44 44 44 45 45 46
22 22 22 22 22 22 22 22 23 23 23 23 23 23 24 24 24 24 25 25 25 26 26 27 27 27 28 28 28 29 29 29 29 30 30 30 30 30 30 30 31 31 31 31 31 31 31 31 31 31 30 30 30 31 31 30 30 31 31 31 31 32 32 32 32 33 33 33 33 34 34 35 35 35 36 36 36 37 37 38 38 38 39 39 39 39 40 40 40 41 41 41 42 42 42 43 43 43 44 44 44 45 45
22 22 22 22 22 22 22 22 23 23 23 23 23 23 24 24 24 25 25 25 26 26 26 27 27 28 28 28 29 29 30 30 30 30 30 31 31 31 31 31 31 32 32 32 32 32 32 32 31 31 31 31 31 31 31 31 31 32 32 32 32 32 33 33 33 33 34 34 34 35 35 35 36 36 36 37 37 37 38 38 38 39 39 39 39 40 40 40 40 41 41 41 42 42 42 42 43 43 43 44 44 44 45
22 22 22 22 22 22 22 22 23 23 23 23 23 23 23 24 24 24 25 25 25 26 26 26 27 27 28 28 29 29 30 30 30 31 31 31 32 32 32 32 32 32 32 33 33 33 32 32 32 32 32 32 32 32 33 33 33 33 33 33 33 34 34 34 34 35 35 35 36 36 36 36 37 37 37 38 38 38 39 39 39 40 40 40 40 40 41 41 41 41 42 42 42 42 43 43 43 43 44 44 44 44 45
23 23 23 23 22 22 22 23 23 23 23 23 23 23 23 23 24 24 24 24 25 25 25 26 26 26 27 27 28 28 29 29 30 31 31 31 32 32 32 33 33 33 33 33 33 34 33 33 33 33 33 33 33 34 34 34 34 34 34 34 35 35 35 35 35 36 36 36 37 37 37 37 38 38 38 38 39 39 39 40 40 40 40 41 41 41 41 42 42 42 42 43 43 43 43 43 44 44 44 44 44 45 45
24 24 24 23 23 23 23 23 23 23 23 23 23 23 23 24 24 24 24 24 24 24 25 25 25 25 26 26 26 27 28 28 29 29 30 30 31 31 32 32 33 33 33 34 34 34 34 34 34 34 34 34 34 35 35 35 35 35 36 36 36 36 36 37 37 37 37 37 37 38 38 38 38 38 38 39 39 39 39 40 40 40 40 40 41 41 41 41 42 42 42 42 43 43 43 43 44 44 44 44 45 45 45
25 25 25 25 24 24 24 24 24 24 24 24 24 24 24 24 24 24 24 24 25 25 25 25 25 25 25 25 26 26 26 27 27 28 28 29 29 30 30 31 31 32 32 33 33 33 34 34 34 34 34 35 35 35 35 35 36 36 36 37 37 37 37 37 37 38 38 38 38 38 38 38 38 38 38 38 38 38 39 39 39 39 39 39 40 40 40 40 41 41 41 41 42 42 42 43 43 43 43 44 44 44 45
26 26 26 26 25 25 25 25 25 25 25 25 25 25 25 25 25 25 25 25 25 26 26 26 26 26 26 26 26 26 26 27 27 27 27 28 28 28 29 30 30 31 31 32 32 32 33 33 33 34 34 34 35 35 35 35 36 36 36 36 37 37 37 37 37 37 38 38 38 38 38 38 38 37 37 37 37 38 38 38 38 38 38 38 39 39 39 39 39 40 40 40 41 41 41 42 42 42 43 43 43 44 44
26 26 26 26 26 26 26 26 26 26 26 26 26 26 26 26 26 26 26 26 27 27 27 27 27 27 27 27 27 27 27 27 28 28 28 28 28 28 29 29 29 30 30 31 31 31 32 32 33 33 33 34 34 34 35 35 35 36 36 36 36 36 36 37 37 37 37 37 37 37 37 37 37 37 37 37 37 37 37 37 37 38 38 38 38 38 38 38 39 39 39 40 40 40 40 41 41 42 42 42 43 43 44
27 27 27 27 27 27 27 27 27 27 27 27 27 27 27 27 27 27 28 28 28 28 28 28 28 28 28 28 28 29 29 29 29 29 29 29 29 29 29 29 30 30 30 31 31 31 31 32 32 32 33 33 33 34 34 34 35 35 35 35 35 36 36 36 36 36 36 36 37 37 37 37 37 37 37 37 37 37 37 37 38 38 38 38 38 38 38 38 39 39 39 39 40 40 40 41 41 41 42 42 43 43 43
28 28 28 28 28 28 28 28 28 28 28 28 28 28 28 29 29 29 29 29 29 29 29 29 29 29 30 30 30 30 30 30 30 30 30 30 30 30 30 30 31 31 31 31 31 31 32 32 32 32 33 33 33 33 34 34 34 34 34 35 35 35 35 35 35 36 36 36 36 37 37 37 37 37 38 38 38 38 38 38 38 39 39 39 39 39 39 39 39 39 39 40 40 40 40 41 41 42 42 42 43 43 44
28 29 29 29 29 29 29 29 29 29 29 29 29 29 29 30 30 30 30 30 30 30 30 30 30 31 31 31 31 31 31 31 31 32 32 32 32 32 32 32 32 32 32 32 32 32 32 32 33 33 33 33 34 34 34 34 34 34 34 34 35 35 35 35 35 36 36 36 37 37 37 37 38 38 38 38 39 39 39 39 39 40 40 40 40 40 40 40 40 40 41 41 41 41 41 42 42 42 43 43 44 44 44
29 29 29 29 30 30 30 30 30 30 30 30 30 30 30 30 31 31 31 31 31 31 31 31 31 32 32 32 32 32 32 33 33 33 33 33 33 33 33 33 33 33 33 33 33 33 33 33 33 34 34 34 34 35 35 35 35 35 35 35 35 35 36 36 36 36 37 37 37 38 38 38 39 39 39 39 40 40 40 40 41 41 41 41 41 41 41 42 42 42 42 43 43 43 43 44 44 44 44 45 45 45 46
29 29 30 30 30 30 31 31 31 31 31 31 31 31 31 31 32 32 32 32 32 32 32 32 32 32 33 33 33 33 33 33 34 34 34 34 34 34 34 34 34 34 34 34 34 34 34 34 35 35 35 35 35 35 36 36 36 36 36 36 36 37 37 37 37 38 38 38 38 39 39 39 39 40 40 40 40 41 41 41 41 42 42 42 42 43 43 43 44 44 44 44 45 45 45 46 46 46 46 47 47 47 47
30 30 30 30 31 31 31 31 32 32 32 32 32 32 32 32 32 32 33 33 33 33 33 33 33 33 33 34 34 34 34 34 34 35 35 35 35 35 35 36 36 36 36 36 36 36 36 36 36 36 36 36 37 37 37 37 37 37 37 38 38 38 38 39 39 39 39 40 40 40 40 40 40 41 41 41 41 42 42 42 42 43 43 44 44 44 45 45 45 46 46 46 47 47 47 48 48 48 48 48 49 49 49
30 30 31 31 31 31 32 32 32 32 33 33 33 33 33 33 33 33 33 33 34 34 34 34 34 34 34 34 34 34 35 35 35 35 35 36 36 36 36 37 37 37 37 37 37 37 37 37 37 37 38 38 38 38 38 38 39 39 39 39 40 40 40 40 40 41 41 41 41 41 42 42 42 42 42 42 42 43 43 43 44 44 44 45 45 46 46 46 47 47 48 48 48 49 49 49 50 50 50 50 50 50 50
31 31 31 31 32 32 32 33 33 33 33 33 33 34 34 34 34 34 34 34 34 34 35 35 35 35 35 35 35 35 35 35 35 36 36 36 36 37 37 37 37 38 38 38 38 38 38 38 39 39 39 39 39 40 40 40 40 41 41 41 41 42 42 42 42 42 42 43 43 43 43 43 43 43 44 44 44 44 45 45 45 46 46 47 47 47 48 48 48 49 49 50 50 50 51 51 51 51 51 52 52 52 52
31 31 32 32 32 33 33 33 33 34 34 34 34 34 34 34 35 35 35 35 35 35 35 35 35 36 36 36 36 36 36 36 36 36 36 37 37 37 37 38 38 38 39 39 39 39 39 40 40 40 41 41 41 41 41 42 42 43 43 43 43 43 44 44 44 44 44 44 44 45 45 45 45 45 45 46 46 46 46 47 47 47 48 48 49 49 49 50 50 50 51 51 52 52 52 52 53 53 53 53 53 53 53
32 32 32 32 33 33 33 34 34 34 34 34 34 34 34 35 35 35 35 35 35 35 35 36 36 36 36 36 37 37 37 37 37 37 37 37 38 38 38 38 39 39 39 39 40 40 40 41 41 42 42 42 42 43 43 43 44 44 44 45 45 45 45 45 45 46 46 46 46 46 46 47 47 47 47 47 48 48 48 49 49 49 50 50 50 51 51 52 52 52 53 53 53 54 54 54 54 54 54 54 55 55 55
33 33 33 33 33 33 34 34 34 34 34 34 34 34 34 35 35 35 35 35 36 36 36 36 36 36 37 37 37 37 37 38 38 38 38 38 38 39 39 39 39 40 40 40 41 41 41 42 42 43 43 43 44 44 44 45 45 45 46 46 46 46 47 47 47 47 47 47 47 48 48 48 48 49 49 49 49 50 50 50 51 51 51 52 52 53 53 53 54 54 54 55 55 55 55 55 56 56 56 56 56 56 56
33 33 33 33 33 34 34 34 34 34 34 34 34 34 34 34 34 35 35 35 36 36 36 36 36 37 37 37 37 38 38 38 38 38 39 39 39 39 40 40 40 41 41 41 41 42 42 43 43 44 44 44 45 45 45 46 46 47 47 47 47 47 48 48 48 48 48 49 49 49 49 49 50 50 50 51 51 51 52 52 52 53 53 53 54 54 55 55 55 56 56 56 56 56 57 57 57 57 57 57 57 57 57
34 34 34 34 34 34 34 34 34 34 34 34 34 34 34 34 34 34 35 35 35 36 36 36 37 37 37 37 38 38 39 39 39 39 39 39 40 40 40 41 41 41 42 42 42 43 43 44 44 44 45 45 45 46 46 47 47 47 48 48 48 48 49 49 49 49 50 50 50 50 50 51 51 51 52 52 52 53 53 53 54 54 55 55 55 55 56 56 56 56 57 57 57 57 57 57 57 57 57 57 57 57 57
35 35 35 34 34 34 34 34 35 35 34 34 34 34 34 34 34 34 34 35 35 35 36 36 36 37 37 37 38 38 39 39 40 40 40 40 40 41 41 42 42 42 43 43 44 44 44 44 45 45 46 46 46 47 47 48 48 48 48 49 49 49 49 50 50 50 50 51 51 51 51 52 52 52 53 53 53 54 54 54 55 55 55 56 56 56 56 57 57 57 57 57 57 57 57 57 57 57 57 57 57 57 57
36 36 35 35 35 35 35 35 35 35 35 35 35 35 35 35 35 35 35 35 35 35 36 36 36 37 37 37 38 38 39 39 40 40 40 41 41 41 42 42 43 43 43 44 44 45 45 45 46 46 47 47 47 48 48 48 49 49 50 50 50 50 50 51 51 51 51 52 52 52 52 52 53 53 53 54 54 54 55 55 55 56 56 56 56 57 57 57 57 57 57 57 57 57 57 57 57 57 57 57 57 57 57
36 36 36 36 36 36 36 36 36 36 36 37 37 37 37 37 37 36 36 36 36 36 36 37 37 37 37 38 38 38 39 39 40 40 41 41 41 42 42 43 44 44 44 45 45 45 46 46 47 47 48 48 48 49 49 49 50 50 51 51 51 51 52 52 52 52 53 53 53 53 53 54 54 54 54 54 55 55 55 55 56 56 56 56 57 57 57 57 57 57 57 58 58 58 58 58 58 58 58 58 58 58 58
37 37 37 37 36 36 37 37 37 37 37 38 38 38 38 38 38 38 38 38 38 38 38 38 38 38 38 38 38 39 39 39 40 40 41 42 42 42 42 43 43 44 45 45 46 46 46 46 47 48 48 49 49 49 50 50 51 51 51 52 52 52 53 53 53 54 54 54 55 55 55 55 55 55 56 56 56 56 56 56 56 56 56 57 57 57 57 57 57 58 58 58 58 58 58 58 59 59 59 59 59 59 59
38 37 37 37 37 37 37 37 38 38 38 38 39 39 39 39 39 39 39 40 40 40 40 39 39 39 39 39 40 40 40 40 40 41 41 42 42 43 43 43 43 44 44 45 46 46 46 46 47 48 48 49 49 50 50 51 51 51 52 52 53 53 53 54 54 55 55 55 56 56 56 57 57 57 57 57 57 57 57 57 57 57 57 57 57 57 57 58 58 58 58 58 59 59 59 59 59 60 60 60 60 61 61
38 38 38 38 38 38 38 38 39 39 39 40 40 40 40 40 40 40 40 41 41 41 41 41 41 41 41 41 41 41 41 41 41 42 42 42 43 43 43 43 43 44 44 44 45 46 46 46 47 48 48 49 49 50 50 51 51 51 52 52 53 53 53 54 54 55 55 56 56 57 57 57 58 58 58 59 59 59 59 59 59 59 59 59 58 58 58 58 58 59 59 59 59 59 60 60 60 61 61 61 61 62 62
40 40 40 40 40 40 40 40 40 40 41 41 41 41 41 41 41 41 41 42 42 42 42 42 42 42 42 42 42 42 42 42 42 43 43 43 43 43 44 44 44 44 44 44 44 45 46 46 46 47 48 48 48 49 50 50 50 51 51 52 52 53 53 54 54 54 55 55 56 56 57 57 57 58 58 59 59 59 60 60 60 60 60 60 60 60 60 60 60 60 60 60 60 61 61 61 61 62 62 62 63 63 63
41 42 42 42 42 43 42 42 42 42 42 42 42 42 42 42 42 43 43 43 43 43 43 43 43 43 43 43 43 43 43 43 43 43 44 44 44 44 44 45 45 45 45 45 45 45 45 45 45 46 47 47 47 48 49 49 49 50 51 51 52 52 52 53 53 54 54 54 55 55 55 56 56 57 57 58 58 59 59 60 60 61 61 61 62 61 62 62 62 61 62 62 62 62 62 62 63 63 63 63 63 63 64
43 43 44 44 45 45 45 44 44 44 44 44 44 44 44 44 44 44 44 45 45 45 44 44 44 44 44 44 44 44 44 44 44 44 45 45 45 45 45 46 45 45 45 45 45 45 45 45 45 45 46 46 47 47 48 48 48 49 49 50 50 51 51 52 52 52 53 53 53 54 54 54 55 55 56 56 57 57 58 59 60 60 61 62 62 62 62 63 63 63 63 63 63 63 63 63 63 63 63 63 63 63 63
44 45 45 46 47 47 46 46 46 45 45 46 46 46 46 46 46 46 46 46 46 46 46 46 46 46 46 46 46 46 46 46 46 46 45 46 46 46 46 47 47 47 46 46 46 46 46 46 45 45 45 46 46 46 47 47 48 48 48 49 49 49 50 50 51 51 51 52 52 52 53 53 54 54 55 55 55 56 57 58 59 59 60 61 61 62 62 63 63 63 63 63 63 63 63 63 63 62 62 62 62 62 62
45 46 47 48 48 48 48 47 47 47 47 47 47 47 48 48 48 48 48 48 48 48 48 48 48 48 48 48 48 48 47 47 47 47 47 47 47 47 47 48 48 48 48 48 47 47 47 47 46 45 45 45 46 46 46 47 47 48 48 48 48 48 49 49 50 50 50 51 51 52 52 53 53 53 54 54 55 55 56 57 57 58 59 60 60 61 61 62 62 62 62 62 62 62 62 61 61 61 61 61 60 60 60
47 48 49 49 49 49 48 48 48 48 48 48 48 49 49 49 49 49 49 49 49 49 49 49 49 49 49 49 49 49 48 48 48 48 48 48 47 47 47 48 48 48 48 48 48 48 48 47 47 47 46 45 45 46 46 46 47 47 48 48 48 48 48 49 49 49 50 50 51 51 52 52 53 53 54 54 55 55 56 56 57 57 58 58 59 59 60 60 60 60 60 60 60 60 60 60 59 59 59 59 59 59 59
48 49 50 50 50 50 49 49 48 48 49 49 49 50 50 50 50 50 50 50 50 50 50 50 50 50 50 50 50 49 49 49 49 49 48 48 48 48 48 48 48 48 48 48 48 48 48 48 48 48 47 47 46 45 46 46 47 47 48 48 49 49 49 49 49 50 50 51 51 51 52 52 53 53 54 54 55 55 56 56 56 57 57 57 57 58 58 58 58 58 58 58 58 58 58 58 58 58 58 58 58 58 59
50 50 50 50 50 50 49 49 49 49 50 50 50 51 51 51 51 51 51 51 51 51 51 51 50 50 50 50 50 50 49 49 49 49 48 48 48 48 48 48 48 48 48 48 48 48 48 49 49 48 48 48 48 47 46 47 47 48 48 49 49 50 50 50 50 51 51 51 52 52 52 53 53 54 54 55 55 56 56 56 56 56 56 56 56 56 56 56 56 56 56 56 56 56 56 56 56 57 57 57 57 58 58
Wind_Direction
299 298 297 296 295 294 293 291 290 289 288 287 287 287 287 287 287 287 288 288 289 290 290 290 291 291 291 290 289 289 288 287 286 285 284 283 282 281 280 280 278 277 276 275 274 273 272 271 270 270 269 269 268 267 267 266 266 266 265 265 265 265 265 265 265 265 265 265 265 265 265 265 266 266 266 267 267 267 267 267 268 268 268 269 269 269 270 270 270 270 270 270 270 270 270 269 269 269 269 269 268 268 268
299 298 297 296 296 294 293 292 290 289 287 286 286 285 285 285 285 286 286 287 287 288 289 289 289 290 290 290 290 290 289 289 288 287 286 286 285 284 283 282 281 281 280 279 278 277 276 275 273 272 271 270 270 269 268 267 267 266 265 265 264 264 264 264 264 264 264 264 264 264 264 265 265 265 265 265 265 265 265 266 266 266 267 267 267 267 268 268 268 268 269 269 269 269 268 268 268 268 268 268 268 267 267
299 298 298 297 296 295 293 292 290 289 287 286 285 284 283 283 284 284 284 285 286 286 287 287 288 288 289 289 289 289 289 289 288 288 287 287 286 285 285 284 283 283 282 281 281 280 279 278 277 276 275 273 272 271 271 270 269 268 267 266 265 265 264 264 264 264 264 264 264 264 264 264 264 264 264 264 265 265 265 265 265 265 265 266 266 266 266 267 267 267 267 267 267 267 267 267 267 267 267 267 267 267 267
300 299 298 297 296 295 294 292 291 289 288 286 284 283 283 282 282 282 283 283 284 285 285 286 286 287 287 287 287 288 288 288 288 287 287 287 286 285 285 284 284 283 283 282 282 282 281 280 280 279 278 276 276 274 273 273 272 271 270 269 268 267 266 265 264 264 264 264 264 264 263 264 264 264 264 264 264 264 265 265 265 265 265 265 265 265 266 266 266 266 266 267 267 267 267 267 267 267 267 267 266 266 266
301 300 299 298 296 295 294 293 291 290 288 286 284 283 282 282 281 281 282 282 283 283 284 284 284 285 285 285 285 286 286 286 286 285 285 285 284 284 284 283 283 282 282 282 281 281 281 281 280 280 279 278 277 277 276 275 274 273 272 272 271 270 269 267 266 266 265 264 264 264 264 264 263 263 263 264 264 264 264 264 265 265 265 265 265 265 266 266 266 266 266 266 266 266 266 266 266 266 266 266 266 266 266
302 301 300 299 297 296 295 293 292 290 289 286 285 283 282 281 281 280 280 281 281 281 282 282 282 282 283 283 283 283 283 283 283 283 283 283 282 282 281 281 281 280 280 279 279 279 279 279 279 278 278 278 277 277 276 276 275 275 274 274 273 272 271 270 269 268 267 266 265 265 264 264 264 263 263 263 263 263 264 264 264 264 264 265 265 265 265 265 266 266 266 266 266 266 266 266 266 266 266 266 266 266 266
303 302 301 299 298 297 296 294 293 291 289 287 285 284 282 281 280 280 280 279 279 279 279 280 280 280 280 281 281 281 281 281 281 281 281 280 280 280 279 279 278 278 277 277 277 277 276 276 276 276 276 276 276 275 275 275 275 275 274 274 274 274 273 272 271 270 269 269 268 267 266 265 265 264 264 264 263 263 263 263 263 264 264 264 264 264 265 265 265 265 265 266 266 266 266 266 266 266 266 266 266 266 266
304 302 301 300 299 298 297 295 293 292 290 288 286 284 283 282 281 280 279 279 278 278 278 278 278 278 278 279 279 279 279 279 279 279 279 279 278 278 278 277 277 276 276 275 275 274 274 274 274 274 274 274 274 273 273 273 273 273 273 273 273 273 273 273 273 272 271 271 270 269 268 267 266 266 265 265 264 264 264 264 263 263 264 264 264 264 264 264 264 264 265 265 265 265 265 265 265 265 265 265 266 266 266
304 303 302 301 300 299 298 296 295 293 291 289 288 286 285 283 282 281 280 279 279 278 278 277 277 277 277 277 277 278 278 278 278 278 278 278 278 277 277 277 276 276 275 274 274 273 273 272 272 272 272 272 272 272 272 271 271 271 271 271 271 272 272 272 272 272 272 272 271 271 270 269 268 268 267 266 266 265 265 265 264 264 264 264 264 264 264 264 264 264 264 264 264 264 264 264 264 264 264 265 265 265 265
304 303 302 302 301 300 299 298 297 295 294 292 290 289 287 286 284 283 282 281 280 279 278 278 277 277 277 277 277 277 277 278 278 278 278 278 277 277 277 277 276 276 275 275 274 273 273 272 271 271 271 271 271 271 271 271 270 270 270 270 270 270 270 270 270 271 271 271 271 271 271 270 270 269 269 268 268 267 267 266 266 265 265 265 264 264 264 264 264 264 264 264 264 264 264 264 264 264 264 264 264 264 264
304 303 303 302 302 301 300 299 298 297 296 295 293 292 290 289 287 286 284 283 282 281 280 279 278 278 278 277 277 277 277 277 277 277 277 277 277 277 277 277 276 276 276 275 275 274 273 272 272 271 271 270 270 270 270 270 270 270 270 270 269 269 269 269 269 269 269 269 269 269 270 270 270 270 270 269 269 269 268 268 268 267 267 266 266 266 265 265 265 265 264 264 264 264 264 264 264 264 264 264 264 264 264
305 304 303 303 302 301 300 299 299 298 298 297 296 295 293 292 290 288 287 285 284 282 281 281 280 279 279 278 278 277 277 277 276 276 276 276 276 276 276 276 276 276 276 276 275 275 274 273 273 272 271 271 270 270 270 270 270 270 270 270 270 269 269 269 269 269 269 269 269 269 269 269 269 269 269 269 269 269 269 269 269 268 268 268 267 267 267 266 266 266 265 265 265 265 265 264 264 264 264 264 264 264 264
305 305 304 303 302 301 300 299 299 298 298 298 297 296 296 294 293 291 289 287 285 284 283 282 281 280 280 279 279 278 278 277 277 276 276 276 276 276 276 276 276 276 276 276 276 275 275 274 274 273 272 272 271 271 270 270 270 270 270 270 270 270 270 270 269 269 269 269 269 269 269 269 269 268 268 268 268 269 269 268 268 268 268 268 268 268 267 267 267 267 266 266 266 265 265 265 265 265 265 265 264 264 264
306 305 304 303 302 300 299 298 298 297 297 297 297 296 296 296 295 293 291 289 288 286 285 283 282 282 281 280 280 279 279 278 278 277 277 277 276 276 276 276 276 276 276 275 275 275 275 275 274 274 273 273 272 272 271 271 271 271 271 271 271 271 270 270 270 270 270 270 270 270 270 270 270 270 269 269 269 269 269 268 268 268 268 268 268 268 267 267 267 267 267 266 266 266 266 266 265 265 265 265 265 265 265
306 305 304 302 301 300 299 298 297 296 296 296 296 296 296 296 295 295 293 292 290 289 287 286 285 284 283 282 281 281 280 280 280 279 279 278 278 277 277 277 276 276 276 276 275 275 275 275 275 274 274 274 273 273 273 272 272 271 271 271 271 271 271 271 271 271 271 271 271 271 271 271 271 271 271 270 270 270 269 269 269 269 268 268 268 268 268 267 267 267 267 267 266 266 266 266 266 266 265 265 265 265 265
305 304 303 302 300 299 298 297 296 295 295 295 294 295 295 295 295 294 294 293 292 291 290 289 287 286 285 284 283 283 282 282 281 281 280 280 280 279 279 278 278 277 277 276 276 275 275 275 275 275 274 274 274 274 274 274 273 273 272 272 272 272 272 272 271 271 271 271 271 271 271 271 271 271 271 271 271 271 271 270 270 270 270 269 269 269 268 268 268 268 268 267 267 267 267 266 266 266 266 266 265 265 265
305 303 302 300 299 298 297 296 295 295 294 294 294 294 294 294 294 294 294 293 293 293 292 291 290 289 288 287 286 285 284 283 283 282 282 281 281 280 280 280 279 278 278 277 277 276 276 275 275 275 275 274 274 274 274 274 274 274 274 273 273 273 273 272 272 272 272 272 272 272 272 272 272 271 271 271 271 271 271 271 271 271 271 270 270 270 270 270 269 269 269 269 268 268 268 267 267 267 267 266 266 266 266
303 302 301 300 298 297 296 296 295 294 294 293 293 293 293 293 292 292 292 292 292 292 292 292 292 291 290 290 288 288 286 285 285 284 283 282 282 281 281 281 280 280 279 279 278 277 277 276 276 275 275 275 274 274 274 274 274 274 274 274 274 274 273 273 273 273 273 272 272 272 272 272 272 272 271 271 271 271 271 271 271 271 271 271 271 271 271 270 270 270 270 270 270 269 269 269 269 268 268 268 267 267 266
302 301 300 299 298 297 296 295 294 294 293 293 293 292 292 292 292 291 291 291 291 291 291 291 291 291 291 290 289 289 288 287 286 285 284 284 283 282 282 281 281 281 280 280 279 279 278 278 277 277 276 276 275 275 275 274 274 274 274 274 274 274 274 274 274 273 273 273 273 272 272 272 272 272 272 272 272 271 271 271 271 271 271 271 271 271 271 271 271 271 271 271 270 270 270 270 270 270 269 269 269 268 268
301 300 299 299 298 297 296 295 294 293 293 292 292 291 291 291 290 290 290 289 289 290 290 290 290 290 290 289 289 288 288 287 286 286 285 284 284 283 283 282 282 281 281 280 280 280 279 279 278 278 277 277 276 276 276 275 275 275 275 274 274 274 274 274 274 274 273 273 273 273 273 272 272 272 272 272 272 272 272 272 272 271 271 271 271 271 271 271 271 271 271 271 271 271 271 271 270 270 270 270 270 269 269
300 300 299 298 298 297 296 295 294 293 292 292 291 290 290 289 289 289 288 288 288 288 288 288 288 288 288 288 287 287 287 286 286 285 285 284 284 283 283 282 282 282 281 281 281 280 280 280 279 279 278 278 278 277 277 277 276 276 276 276 275 275 275 275 275 274 274 274 273 273 273 273 273 272 272 272 272 272 272 272 272 272 272 272 272 272 272 272 271 271 271 271 271 271 271 271 271 270 270 270 270 270 270
300 300 299 298 298 297 296 295 294 293 292 291 290 289 288 288 288 287 287 287 287 287 287 287 287 287 287 287 287 286 286 286 285 285 284 284 283 283 282 282 282 281 281 281 281 280 280 280 279 279 279 278 278 278 278 278 278 278 277 277 277 277 276 276 276 275 275 275 274 274 274 274 273 273 273 273 273 273 273 272 272 272 272 272 272 272 272 272 272 272 271 271 271 271 271 271 271 271 270 270 270 270 270
300 300 300 299 298 297 297 295 294 293 292 291 290 289 288 287 287 287 286 286 286 286 286 286 286 286 286 286 287 286 286 286 286 285 285 284 284 283 283 282 282 281 281 280 280 280 280 280 279 279 279 279 279 278 278 278 278 278 278 278 278 278 278 277 277 277 276 276 276 275 275 275 275 274 274 274 274 274 273 273 273 273 272 272 272 272 272 272 272 272 272 271 271 271 271 271 271 271 271 270 270 270 270
302 301 301 300 299 298 297 296 295 293 292 291 290 290 289 288 287 287 286 286 286 286 286 286 286 286 286 286 287 287 287 286 286 286 285 285 284 284 283 282 282 281 281 280 280 279 279 279 279 279 279 279 278 278 278 278 278 278 278 278 278 278 278 278 278 278 277 277 277 277 276 276 276 276 275 275 275 275 274 274 274 273 273 273 273 273 272 272 272 272 272 272 272 271 271 271 271 271 271 271 270 270 270
303 303 302 301 300 299 298 297 296 295 294 293 292 291 290 289 289 288 287 287 286 286 286 286 286 286 286 286 286 286 286 286 286 286 285 285 284 284 283 282 282 281 281 280 280 279 279 279 279 279 279 278 278 278 278 278 278 278 278 278 278 278 278 278 278 278 278 278 278 278 277 277 277 277 276 276 276 275 275 275 275 274 274 274 274 273 273 273 273 273 273 272 272 272 272 271 271 271 271 271 270 270 270
303 303 302 302 301 300 300 299 297 296 295 295 294 293 292 291 290 289 289 288 287 287 286 286 286 286 285 285 285 285 285 285 284 284 284 284 283 283 282 282 281 281 280 280 280 279 279 279 279 279 279 279 279 279 278 278 278 278 278 278 278 278 278 278 278 278 278 278 278 278 278 278 277 277 277 277 276 276 276 276 275 275 275 275 274 274 274 274 274 273 273 273 273 272 272 272 271 271 271 271 270 270 270
302 302 301 301 300 300 300 299 299 298 297 296 296 295 294 293 292 291 290 289 288 287 286 285 285 284 284 283 283 283 283 282 282 282 282 282 282 281 281 280 280 280 279 279 279 279 279 278 278 278 278 278 278 278 278 278 278 278 278 278 278 278 278 278 278 278 278 278 278 278 278 278 278 277 277 277 277 277 276 276 276 276 276 275 275 275 275 274 274 274 273 273 273 273 272 272 272 271 271 271 271 270 270
301 300 300 300 300 300 300 300 299 299 298 298 297 296 295 293 292 291 290 289 288 286 285 284 283 282 282 281 281 280 280 280 279 279 279 279 279 279 279 279 279 279 278 278 278 278 278 278 278 278 278 278 278 278 278 278 278 278 278 278 278 278 278 278 278 278 278 278 278 277 277 277 277 277 277 277 277 277 277 277 276 276 276 276 276 276 275 275 275 274 274 274 273 273 273 273 272 272 272 272 271 271 271
299 299 299 299 300 300 300 300 300 299 299 298 297 296 295 294 293 291 290 289 287 286 285 283 282 281 280 279 279 278 278 277 277 277 277 277 277 277 278 278 278 278 278 277 277 277 277 277 277 277 277 277 277 277 277 277 277 277 277 278 278 278 278 278 278 278 278 278 278 277 277 277 277 277 277 277 277 277 276 276 276 276 276 276 276 276 276 275 275 275 275 274 274 274 274 273 273 273 273 272 272 272 271
298 299 299 300 300 301 300 300 300 300 299 298 298 297 296 295 293 292 291 290 288 287 285 284 283 282 280 279 278 278 277 277 276 276 276 276 276 276 276 276 277 277 277 277 277 277 277 277 277 277 277 277 277 277 277 277 277 277 277 277 277 277 277 277 278 278 277 277 277 277 277 277 277 277 276 276 276 276 276 276 276 276 276 276 276 276 276 276 275 275 275 275 275 275 275 274 274 274 273 273 273 272 272
299 300 301 301 301 302 301 301 301 300 299 299 298 297 297 296 295 294 293 292 290 289 288 287 285 284 282 281 280 279 279 278 277 277 276 276 276 276 276 276 276 277 277 277 277 277 277 278 277 277 277 277 277 277 277 277 277 277 277 277 277 277 277 277 277 277 277 277 277 277 276 276 276 276 276 276 276 276 275 275 275 275 275 275 275 275 275 275 275 275 276 275 276 275 275 275 275 275 274 274 274 273 273
299 300 301 301 302 302 301 301 301 300 300 299 299 298 298 297 296 296 295 294 293 292 291 290 289 288 287 285 284 283 282 281 280 279 279 278 278 278 277 277 277 277 277 278 278 278 278 278 278 278 278 278 278 278 278 278 277 277 277 277 277 277 277 277 277 277 277 277 276 276 276 276 276 276 275 275 275 275 275 275 275 275 275 275 275 275 275 275 275 275 276 276 276 276 276 276 276 275 275 275 275 275 274
298 299 300 300 301 301 301 301 300 300 300 300 299 299 298 298 298 297 297 296 296 296 295 294 293 293 292 290 289 288 287 286 285 284 283 282 281 280 280 280 279 279 279 279 279 279 279 279 279 279 279 279 279 279 279 278 278 278 278 278 278 277 277 277 277 277 277 277 276 276 276 276 275 275 275 275 275 275 275 275 275 275 275 275 275 275 275 275 275 275 275 275 275 275 276 276 276 276 276 276 275 275 275
297 297 298 298 299 299 299 299 300 300 300 300 300 299 299 299 299 299 298 298 298 298 297 297 297 296 295 295 294 293 292 291 290 289 288 287 286 285 284 283 283 282 282 281 281 281 281 281 281 281 280 280 280 280 280 279 279 279 279 278 278 278 278 278 278 277 277 277 277 276 276 276 276 276 275 275 275 275 275 275 275 274 274 274 274 274 274 274 274 274 275 275 275 275 275 275 275 276 276 276 276 276 275
295 295 296 296 297 297 298 298 299 299 300 300 300 300 300 300 300 300 299 299 299 299 299 299 298 298 298 297 297 296 295 294 294 293 292 291 290 289 288 287 287 286 285 285 284 284 283 283 283 282 282 281 281 281 280 280 280 279 279 279 279 279 279 278 278 278 278 277 277 277 277 277 276 276 276 276 276 275 275 275 275 275 274 274 274 274 274 274 274 274 274 274 274 274 274 275 275 275 275 275 275 275 275
295 295 295 295 296 296 297 298 298 299 299 299 300 300 300 300 300 300 300 300 300 300 300 299 299 299 299 299 298 298 297 297 296 296 295 294 293 293 292 291 290 289 289 288 287 287 286 285 285 284 284 283 282 282 281 281 280 280 280 280 280 279 279 279 279 278 278 278 278 278 278 278 277 277 277 277 277 276 276 276 276 275 275 275 275 274 274 274 274 274 274 274 274 274 274 274 274 274 275 275 275 275 275
295 295 295 295 295 296 296 297 297 298 298 298 299 299 299 299 299 300 300 300 300 300 300 300 300 300 300 300 299 299 298 298 297 297 296 296 295 295 294 293 292 292 291 290 290 289 288 288 287 286 286 285 284 284 283 283 282 281 281 281 280 280 280 279 279 279 279 279 279 279 279 279 278 278 278 278 278 278 278 277 277 277 277 276 276 276 276 276 276 276 276 275 275 275 275 275 275 275 275 275 275 275 275
296 296 296 296 296 296 296 296 296 297 297 297 297 298 298 298 299 299 299 300 300 300 300 300 300 300 300 300 300 299 299 299 298 298 297 297 296 296 295 295 294 293 293 292 291 291 290 289 289 288 287 287 286 285 285 284 284 283 283 282 282 281 281 280 280 280 280 280 280 280 280 280 280 279 279 279 279 279 279 279 279 278 278 278 278 278 278 278 278 278 278 278 277 277 277 277 276 276 276 276 276 275 275
297 297 297 297 296 296 296 296 296 296 296 296 296 296 297 297 298 298 299 299 299 300 300 300 300 300 300 300 300 299 299 299 298 298 297 297 297 296 296 295 295 294 293 293 292 292 291 290 290 289 288 287 287 286 286 285 285 284 284 284 283 283 282 282 282 282 281 281 281 281 281 281 280 280 280 280 280 280 279 279 279 279 279 279 279 279 279 279 279 279 279 279 279 279 279 279 278 278 278 278 277 277 277
297 298 298 298 297 297 296 296 295 295 295 295 295 296 296 296 297 297 298 298 298 299 299 299 299 299 299 299 299 299 299 299 298 298 297 297 296 296 296 295 295 294 294 293 292 292 291 290 290 289 288 288 287 287 286 286 286 285 285 284 284 284 283 283 283 283 283 282 282 282 282 281 281 281 281 280 280 280 280 280 280 279 279 279 279 280 280 280 280 280 280 280 280 280 280 280 280 280 279 279 279 278 278
298 298 299 299 298 297 297 296 296 295 295 295 295 295 295 296 296 296 297 297 297 298 298 298 298 298 298 298 298 298 298 298 297 297 296 296 296 295 295 295 294 294 293 292 292 291 291 290 289 289 288 288 287 287 286 286 286 285 285 285 284 284 284 284 284 284 283 283 283 283 282 282 282 281 281 281 280 280 280 280 280 280 280 280 280 280 280 280 280 280 280 280 280 280 280 280 280 280 280 280 280 279 279
298 298 299 299 299 298 298 297 297 296 296 295 295 295 295 295 296 296 296 296 296 297 297 297 297 297 297 297 297 297 296 296 296 296 295 295 295 294 294 294 293 293 292 292 291 290 290 289 289 288 288 287 287 287 286 286 286 286 285 285 285 285 285 284 284 284 284 284 283 283 283 283 282 282 282 281 281 281 281 281 280 280 280 280 280 280 280 280 280 280 280 281 281 281 281 281 281 281 281 280 280 280 280
297 298 299 299 299 299 299 298 298 297 297 297 296 296 295 295 295 295 295 295 295 295 295 296 296 296 296 296 295 295 295 295 295 294 294 294 293 293 293 293 292 292 291 291 290 290 289 289 288 288 288 287 287 287 287 286 286 286 286 286 285 285 285 285 285 285 284 284 284 284 284 283 283 283 283 282 282 282 282 282 282 281 281 281 282 282 281 281 281 281 281 281 281 281 281 281 281 281 281 281 280 280 280
296 297 298 299 299 299 299 299 299 299 298 298 297 296 296 295 295 295 295 294 294 294 294 294 294 294 294 294 294 294 294 293 293 293 293 293 292 292 292 292 291 291 290 290 290 289 289 288 288 288 287 287 287 287 287 287 286 286 286 286 286 286 286 285 285 285 285 285 284 284 284 284 284 284 283 283 283 283 283 283 282 282 282 282 282 282 282 282 282 282 282 282 282 282 282 282 281 281 281 281 280 280 280
296 297 297 298 299 299 299 299 299 299 299 299 298 297 297 296 295 295 294 294 294 293 293 293 293 292 292 292 292 292 292 292 292 291 291 291 291 291 291 290 290 290 290 289 289 289 288 288 288 287 287 287 287 287 287 287 286 286 286 286 286 286 285 285 285 285 285 284 284 284 284 284 284 284 283 283 283 283 283 283 283 283 283 282 283 283 283 283 283 282 282 282 282 282 282 282 282 281 281 281 281 280 280
295 296 297 297 297 298 298 299 299 299 299 299 298 297 297 296 295 295 294 294 293 293 292 292 291 291 291 291 290 290 290 290 290 290 290 289 289 289 289 289 289 289 289 289 288 288 288 287 287 287 287 287 287 287 286 286 286 286 286 285 285 285 285 285 285 284 284 284 284 284 283 283 283 283 283 283 283 283 283 282 282 282 282 282 282 282 282 282 282 282 282 282 282 282 282 282 281 281 281 281 280 280 280
295 295 296 296 296 296 297 297 297 298 298 298 298 297 296 296 295 295 294 293 293 292 292 291 290 290 290 290 289 289 289 288 288 288 288 288 287 288 287 288 288 288 287 288 287 287 287 287 287 287 287 286 286 286 286 286 286 285 285 285 285 285 284 284 284 284 283 283 283 283 283 283 282 282 282 282 282 282 282 282 282 282 282 282 282 282 282 282 282 282 282 282 282 282 282 281 281 281 281 280 280 280 279
294 294 294 295 295 295 295 296 296 296 297 297 297 296 296 296 295 295 294 293 293 292 291 291 290 290 289 289 288 288 288 287 287 287 286 286 286 286 286 286 286 286 286 286 286 286 286 286 286 286 286 286 286 286 285 285 285 285 285 285 284 284 284 284 284 283 283 283 283 283 283 282 282 282 282 282 282 282 282 283 283 283 283 283 283 283 283 283 282 282 282 282 282 282 282 281 281 281 281 280 280 280 279
293 293 294 294 294 294 294 295 295 295 295 295 296 296 296 295 295 295 294 294 293 293 292 291 291 290 289 289 288 288 287 287 287 286 286 285 285 285 285 285 285 284 285 285 285 285 285 285 285 285 285 285 285 285 285 285 285 285 285 285 285 285 284 284 284 284 284 284 283 283 283 283 283 283 283 283 283 283 283 283 283 283 283 283 283 283 283 283 283 283 283 282 282 282 282 282 281 281 281 281 280 280 280
292 293 293 293 294 294 294 295 295 295 295 295 295 295 295 295 295 295 295 294 294 293 293 292 292 291 290 289 289 288 288 287 287 287 286 285 285 284 284 284 284 284 284 284 284 284 285 285 285 285 285 285 285 285 285 285 286 286 286 286 286 286 286 286 285 285 285 285 285 285 285 285 284 284 284 284 284 284 284 284 283 283 283 283 283 283 283 283 283 283 283 283 283 282 282 282 282 282 281 281 281 280 280
292 292 293 293 294 294 295 295 295 295 295 295 295 295 295 295 295 295 295 295 295 294 294 293 292 292 291 291 290 290 289 289 288 287 286 286 285 285 284 284 283 284 284 284 284 284 284 284 285 285 285 285 285 285 285 286 286 286 286 286 287 287 287 287 287 287 287 287 287 287 287 286 286 286 285 285 285 285 284 284 284 283 283 283 283 283 283 283 283 283 283 283 283 282 282 282 282 282 282 282 281 281 281
291 291 292 293 293 294 295 295 296 296 296 296 296 296 296 296 296 296 295 295 295 295 294 294 293 293 292 292 291 291 290 290 289 288 288 287 287 286 285 285 284 284 284 284 284 284 284 284 284 284 284 285 285 285 285 285 286 286 286 286 287 287 287 287 287 287 288 288 288 288 288 288 288 287 287 287 286 286 286 285 285 284 284 283 283 283 283 283 283 283 283 282 282 282 282 282 282 282 282 282 282 281 281
291 291 291 292 292 293 294 295 295 296 296 296 296 296 296 296 296 296 296 295 295 295 295 294 294 294 293 292 292 292 291 291 290 290 289 288 288 287 287 286 285 284 284 283 283 284 284 283 283 283 283 284 284 284 284 285 285 285 285 286 286 286 286 287 287 287 287 288 288 288 288 288 288 288 288 288 288 288 287 287 286 286 285 285 285 284 284 284 283 283 283 283 283 283 282 282 282 282 282 282 282 282 282
291 291 291 291 291 292 292 293 294 294 295 296 296 296 295 295 295 295 295 295 295 295 295 295 294 294 294 293 293 292 292 291 291 291 290 289 289 288 288 287 286 286 285 284 284 283 284 283 283 282 283 283 283 283 283 283 284 284 284 285 285 285 285 286 286 286 287 287 287 287 288 288 288 288 288 289 289 289 289 288 288 288 287 287 286 286 286 285 285 285 284 284 284 284 284 283 283 283 283 283 283 283 282
291 291 292 292 291 291 291 291 292 293 294 295 295 295 295 295 295 295 295 295 295 295 294 294 294 294 294 294 293 293 292 292 291 291 291 290 290 289 289 288 287 287 286 286 285 284 284 284 283 283 283 283 283 283 283 283 283 283 283 283 284 284 284 285 285 285 285 285 286 286 286 286 287 287 287 288 288 288 288 288 288 288 288 288 288 287 287 287 287 286 286 286 286 285 285 285 285 285 284 284 284 284 283
291 292 292 292 292 292 292 292 292 293 294 294 295 295 295 295 295 295 295 295 295 295 295 294 294 294 294 294 294 293 293 292 292 291 291 291 290 290 289 289 288 287 287 286 285 285 285 284 284 284 284 283 283 283 283 283 282 282 283 283 283 283 283 283 283 284 284 284 284 284 284 284 285 285 285 286 286 286 287 287 287 287 287 288 288 288 288 287 287 287 287 287 287 287 287 286 286 286 286 285 285 285 284
292 292 293 293 293 293 293 293 294 294 294 295 295 295 295 295 295 295 295 295 295 295 295 295 295 295 294 294 294 294 293 293 292 292 291 291 291 290 290 290 289 289 288 287 286 286 285 285 284 284 284 284 283 283 283 283 283 282 282 282 282 282 282 283 283 283 283 283 283 283 283 283 283 283 284 284 284 284 285 285 286 286 286 287 287 287 287 287 287 288 288 288 288 288 287 287 287 287 287 286 286 286 285
292 293 293 294 295 295 295 295 295 296 296 296 296 296 296 296 296 296 296 296 296 296 296 296 296 296 295 295 295 295 295 294 293 293 292 292 291 291 291 290 290 289 289 288 288 287 286 286 285 285 284 284 284 284 284 284 284 284 283 283 283 283 283 282 282 282 283 283 283 283 283 283 283 283 283 283 283 283 284 284 284 285 285 286 286 286 287 287 287 287 287 287 287 288 288 288 287 287 287 287 287 286 286
292 293 294 295 295 296 296 296 297 297 297 298 298 298 298 298 297 297 297 297 297 297 297 297 297 297 297 297 296 296 296 295 294 294 293 293 292 292 291 291 291 290 290 289 289 288 288 288 287 286 286 285 285 285 285 285 285 285 284 284 284 283 283 283 283 283 283 283 283 283 283 283 283 283 283 283 283 283 283 284 284 284 284 285 285 286 286 286 286 287 287 287 287 287 287 287 287 287 287 287 286 286 286
292 293 294 295 296 296 297 297 298 298 298 299 299 299 299 298 298 298 298 298 298 298 298 298 298 298 298 298 297 297 297 296 295 295 294 294 293 292 292 291 291 291 290 290 290 289 289 289 288 288 288 287 286 285 286 286 286 286 285 285 285 285 284 284 284 284 284 284 284 284 284 285 285 285 285 284 284 284 284 284 284 284 285 285 285 285 285 286 286 286 286 286 286 286 286 286 286 286 286 286 286 285 285
293 294 295 296 296 297 297 298 298 298 299 299 299 299 299 299 299 299 299 299 299 299 299 299 299 299 299 299 298 298 297 297 296 296 295 295 294 293 293 292 292 291 291 291 290 290 290 290 289 289 289 288 288 287 286 286 286 286 286 286 286 286 286 285 285 285 286 286 286 286 286 286 286 286 286 286 285 285 285 285 285 285 285 285 285 285 285 285 285 286 286 286 286 286 286 285 285 285 285 285 284 284 284